User: anonymous   Login
Location: Little Chesterford
(52.0500°N, 0.1833°E)
Time: 12:22:44
(UTC+00:00)
Language:

Cosmos 1452 Rocket - Orbit

View from above orbital plane
View from above orbital plane
View from above satellite
View from above satellite

Ground track
Ground track

The orbit data is extracted from the following two-line orbital elements,

1 13992U 83031B   24056.82618023  .00000427  00000-0  15370-3 0  9998
2 13992  74.0527 202.1041 0006045 292.4432  67.6081 14.36748372139491
Epoch (UTC): 25 February 2024 19:49:41
Eccentricity: 0.0006045
inclination: 74.0527°
perigee height: 765 km
apogee height: 773 km
right ascension of ascending node: 202.1041°
argument of perigee: 292.4432°
revolutions per day: 14.36748372
mean anomaly at epoch: 67.6081°
orbit number at epoch: 13949

The dashed part of the orbit path shows where the satellite is in the earth's shadow,  

DLR